| time (UTC) | temp C | wind direction | speed KPH | gust KPH | rain 1hr cm | rain 24hr cm | rain mn cm | humidity % | barometer mb |
| 20260507140132 | 17 | 226 | 3.2 | 9.7 | 0.00 | 0.00 | 0.00 | 35 | |
| 20260507135633 | 17 | 255 | 3.2 | 12.9 | 0.00 | 0.00 | 0.00 | 35 | |
| 20260507134631 | 17 | 198 | 1.6 | 8.0 | 0.00 | 0.00 | 0.00 | 33 | |
| 20260507133631 | 17 | 190 | 3.2 | 11.3 | 0.00 | 0.00 | 0.00 | 35 | |
| 20260507133131 | 17 | 212 | 1.6 | 6.4 | 0.00 | 0.00 | 0.00 | 35 | |
| 20260507132630 | 17 | 201 | 1.6 | 9.7 | 0.00 | 0.00 | 0.00 | 35 | |
| 20260507132130 | 16 | 205 | 1.6 | 8.0 | 0.00 | 0.00 | 0.00 | 36 | |
| 20260507131630 | 16 | 266 | 4.8 | 9.7 | 0.00 | 0.00 | 0.00 | 36 | |
| 20260507131129 | 16 | 198 | 3.2 | 8.0 | 0.00 | 0.00 | 0.00 | 36 | |
| 20260507130629 | 16 | 253 | 4.8 | 11.3 | 0.00 | 0.00 | 0.00 | 37 | |
| 20260507130129 | 16 | 248 | 1.6 | 8.0 | 0.00 | 0.00 | 0.00 | 37 | |
| 20260507125629 | 16 | 287 | 0.0 | 4.8 | 0.00 | 0.00 | 0.00 | 36 | |
| 20260507125129 | 16 | 233 | 3.2 | 6.4 | 0.00 | 0.00 | 0.00 | 35 | |
| 20260507124628 | 17 | 243 | 0.0 | 4.8 | 0.00 | 0.00 | 0.00 | 34 | |
| 20260507124128 | 17 | 262 | 1.6 | 8.0 | 0.00 | 0.00 | 0.00 | 35 | |
| 20260507123627 | 17 | 226 | 3.2 | 11.3 | 0.00 | 0.00 | 0.00 | 33 | |
| 20260507123127 | 18 | 270 | 3.2 | 9.7 | 0.00 | 0.00 | 0.00 | 31 | |
| 20260507122627 | 18 | 245 | 1.6 | 11.3 | 0.00 | 0.00 | 0.00 | 31 | |
| 20260507122127 | 18 | 278 | 3.2 | 9.7 | 0.00 | 0.00 | 0.00 | 32 | |
| 20260507121626 | 18 | 207 | 6.4 | 12.9 | 0.00 | 0.00 | 0.00 | 35 | |
| 20260507121126 | 18 | 215 | 4.8 | 14.5 | 0.00 | 0.00 | 0.00 | 35 | |
| 20260507120626 | 18 | 224 | 3.2 | 9.7 | 0.00 | 0.00 | 0.00 | 31 | |
| 20260507120125 | 17 | 277 | 3.2 | 8.0 | 0.00 | 0.00 | 0.00 | 34 | |
| 20260507115625 | 17 | 248 | 1.6 | 6.4 | 0.00 | 0.00 | 0.00 | 37 | |
| 20260507115125 | 17 | 215 | 3.2 | 9.7 | 0.00 | 0.00 | 0.00 | 37 | |
| 20260507114625 | 17 | 215 | 3.2 | 11.3 | 0.00 | 0.00 | 0.00 | 35 | |
| 20260507114124 | 18 | 245 | 1.6 | 6.4 | 0.00 | 0.00 | 0.00 | 36 | |
| 20260507113624 | 17 | 266 | 3.2 | 9.7 | 0.00 | 0.00 | 0.00 | 38 | |
| 20260507113124 | 17 | 260 | 3.2 | 9.7 | 0.00 | 0.00 | 0.00 | 37 | |
| 20260507112624 | 16 | 263 | 3.2 | 8.0 | 0.00 | 0.00 | 0.00 | 41 | |
| 20260507112123 | 16 | 25 | 0.0 | 3.2 | 0.00 | 0.00 | 0.00 | 43 | |
| 20260507111623 | 16 | 280 | 1.6 | 6.4 | 0.00 | 0.00 | 0.00 | 45 | |
| 20260507110622 | 15 | 214 | 1.6 | 6.4 | 0.00 | 0.00 | 0.00 | 48 | |
| 20260507110122 | 15 | 0 | 0.0 | 0.0 | 0.00 | 0.00 | 0.00 | 51 | |
| 20260507105621 | 15 | 325 | 1.6 | 8.0 | 0.00 | 0.00 | 0.00 | 50 | |
| 20260507105121 | 15 | 238 | 1.6 | 6.4 | 0.00 | 0.00 | 0.00 | 51 | |
| 20260507104120 | 14 | 300 | 3.2 | 6.4 | 0.00 | 0.00 | 0.00 | 56 | |
| 20260507103620 | 15 | 18 | 0.0 | 1.6 | 0.00 | 0.00 | 0.00 | 60 | |
| 20260507103120 | 14 | 349 | 0.0 | 3.2 | 0.00 | 0.00 | 0.00 | 61 | |
| 20260507102620 | 13 | 158 | 1.6 | 4.8 | 0.00 | 0.00 | 0.00 | 62 | |
| 20260507102119 | 13 | 108 | 1.6 | 6.4 | 0.00 | 0.00 | 0.00 | 63 | |
| 20260507101619 | 12 | 110 | 0.0 | 6.4 | 0.00 | 0.00 | 0.00 | 66 | |
| 20260507101119 | 12 | 158 | 3.2 | 8.0 | 0.00 | 0.00 | 0.00 | 67 | |
| 20260507100618 | 12 | 139 | 1.6 | 8.0 | 0.00 | 0.00 | 0.00 | 67 | |
| 20260507100118 | 12 | 156 | 3.2 | 8.0 | 0.00 | 0.00 | 0.00 | 68 | |
| 20260507095617 | 12 | 173 | 1.6 | 4.8 | 0.00 | 0.00 | 0.00 | 69 | |
| 20260507094615 | 12 | 89 | 0.0 | 3.2 | 0.00 | 0.00 | 0.00 | 73 | |
| 20260507094114 | 11 | 0 | 0.0 | 0.0 | 0.00 | 0.00 | 0.00 | 74 | |
| 20260507093614 | 11 | 0 | 0.0 | 0.0 | 0.00 | 0.00 | 0.00 | 74 | |
| 20260507093114 | 11 | 0 | 0.0 | 0.0 | 0.00 | 0.00 | 0.00 | 75 | |
| 20260507092614 | 11 | 0 | 0.0 | 0.0 | 0.00 | 0.00 | 0.00 | 77 | |
| 20260507092113 | 11 | 145 | 0.0 | 0.0 | 0.00 | 0.00 | 0.00 | 78 | |
| 20260507091613 | 11 | 0 | 0.0 | 0.0 | 0.00 | 0.00 | 0.00 | 79 | |
| 20260507091113 | 10 | 97 | 0.0 | 4.8 | 0.00 | 0.00 | 0.00 | 80 | |
| 20260507090612 | 10 | 79 | 0.0 | 3.2 | 0.00 | 0.00 | 0.00 | 81 | |
| 20260507090112 | 9 | 0 | 0.0 | 0.0 | 0.00 | 0.00 | 0.00 | 82 | |
| 20260507085612 | 10 | 0 | 0.0 | 0.0 | 0.00 | 0.00 | 0.00 | 82 | |
| 20260507085112 | 10 | 0 | 0.0 | 0.0 | 0.00 | 0.00 | 0.00 | 83 | |
| 20260507084611 | 10 | 0 | 0.0 | 0.0 | 0.00 | 0.00 | 0.00 | 83 | |
| 20260507084111 | 10 | 0 | 0.0 | 0.0 | 0.00 | 0.00 | 0.00 | 84 | |
| 20260507083611 | 8 | 0 | 0.0 | 0.0 | 0.00 | 0.00 | 0.00 | 84 | |
| 20260507083110 | 8 | 167 | 0.0 | 4.8 | 0.00 | 0.00 | 0.00 | 85 | |
| 20260507082610 | 8 | 150 | 3.2 | 8.0 | 0.00 | 0.00 | 0.00 | 85 | |
| 20260507081610 | 8 | 148 | 1.6 | 6.4 | 0.00 | 0.00 | 0.00 | 86 | |
| 20260507081110 | 8 | 114 | 1.6 | 4.8 | 0.00 | 0.00 | 0.00 | 86 | |
| 20260507080609 | 8 | 160 | 3.2 | 8.0 | 0.00 | 0.00 | 0.00 | 86 | |
| 20260507080109 | 8 | 0 | 0.0 | 0.0 | 0.00 | 0.00 | 0.00 | 87 | |
| 20260507075609 | 8 | 181 | 1.6 | 6.4 | 0.00 | 0.00 | 0.00 | 88 | |
| 20260507075108 | 7 | 136 | 1.6 | 6.4 | 0.00 | 0.00 | 0.00 | 88 | |
| 20260507074608 | 7 | 150 | 3.2 | 6.4 | 0.00 | 0.00 | 0.00 | 88 | |
| 20260507074108 | 7 | 0 | 0.0 | 0.0 | 0.00 | 0.00 | 0.00 | 89 | |
| 20260507073607 | 7 | 0 | 0.0 | 0.0 | 0.00 | 0.00 | 0.00 | 90 | |
| 20260507073107 | 7 | 166 | 1.6 | 4.8 | 0.00 | 0.00 | 0.00 | 90 | |
| 20260507072607 | 7 | 145 | 1.6 | 6.4 | 0.00 | 0.00 | 0.00 | 90 | |
| 20260507072107 | 7 | 152 | 1.6 | 6.4 | 0.00 | 0.00 | 0.00 | 90 | |
| 20260507071606 | 7 | 0 | 0.0 | 0.0 | 0.00 | 0.00 | 0.00 | 91 | |
| 20260507071106 | 7 | 0 | 0.0 | 0.0 | 0.00 | 0.00 | 0.00 | 91 | |
| 20260507070605 | 7 | 103 | 0.0 | 1.6 | 0.00 | 0.00 | 0.00 | 92 | |
| 20260507070105 | 7 | 0 | 0.0 | 0.0 | 0.00 | 0.00 | 0.00 | 92 | |
| 20260507065605 | 7 | 114 | 0.0 | 1.6 | 0.00 | 0.00 | 0.00 | 92 | |
| 20260507065105 | 6 | 0 | 0.0 | 0.0 | 0.00 | 0.00 | 0.00 | 93 | |
| 20260507064604 | 6 | 0 | 0.0 | 0.0 | 0.00 | 0.00 | 0.00 | 93 | |
| 20260507064104 | 6 | 0 | 0.0 | 0.0 | 0.00 | 0.00 | 0.00 | 93 | |
| 20260507063604 | 6 | 113 | 0.0 | 0.0 | 0.00 | 0.00 | 0.00 | 93 | |
| 20260507063104 | 6 | 0 | 0.0 | 0.0 | 0.00 | 0.00 | 0.00 | 93 | |
| 20260507062603 | 6 | 0 | 0.0 | 0.0 | 0.00 | 0.00 | 0.00 | 94 | |
| 20260507062103 | 6 | 113 | 0.0 | 3.2 | 0.00 | 0.00 | 0.00 | 94 | |
| 20260507061603 | 6 | 0 | 0.0 | 0.0 | 0.00 | 0.00 | 0.00 | 94 | |
| 20260507061102 | 6 | 0 | 0.0 | 0.0 | 0.00 | 0.00 | 0.00 | 94 | |
| 20260507060602 | 6 | 128 | 0.0 | 6.4 | 0.00 | 0.00 | 0.00 | 94 | |
| 20260507055601 | 5 | 0 | 0.0 | 0.0 | 0.00 | 0.00 | 0.00 | 94 | |
| 20260507055101 | 5 | 0 | 0.0 | 0.0 | 0.00 | 0.00 | 0.00 | 94 | |
| 20260507054601 | 5 | 0 | 0.0 | 0.0 | 0.00 | 0.00 | 0.00 | 94 | |
| 20260507054101 | 5 | 156 | 1.6 | 6.4 | 0.00 | 0.00 | 0.00 | 94 | |
| 20260507053600 | 5 | 127 | 0.0 | 1.6 | 0.00 | 0.00 | 0.00 | 94 | |
| 20260507053100 | 5 | 149 | 0.0 | 4.8 | 0.00 | 0.00 | 0.00 | 94 | |
| 20260507052600 | 5 | 155 | 1.6 | 9.7 | 0.00 | 0.00 | 0.00 | 94 | |
| 20260507052100 | 5 | 155 | 3.2 | 8.0 | 0.00 | 0.00 | 0.00 | 94 | |
| 20260507051559 | 5 | 177 | 0.0 | 4.8 | 0.00 | 0.00 | 0.00 | 94 | |
| 20260507051058 | 5 | 0 | 0.0 | 0.0 | 0.00 | 0.00 | 0.00 | 93 | |
| 20260507050558 | 5 | 125 | 1.6 | 8.0 | 0.00 | 0.00 | 0.00 | 93 | |
| 20260507050058 | 5 | 143 | 0.0 | 8.0 | 0.00 | 0.00 | 0.00 | 93 | |
| 20260507045558 | 5 | 138 | 0.0 | 6.4 | 0.00 | 0.00 | 0.00 | 93 | |
| 20260507045057 | 5 | 179 | 1.6 | 6.4 | 0.00 | 0.00 | 0.00 | 93 | |
| 20260507044557 | 5 | 138 | 1.6 | 8.0 | 0.00 | 0.00 | 0.00 | 93 | |
| 20260507044057 | 5 | 141 | 1.6 | 4.8 | 0.00 | 0.00 | 0.00 | 92 | |
| 20260507043556 | 5 | 139 | 1.6 | 6.4 | 0.00 | 0.00 | 0.00 | 92 | |
| 20260507043056 | 6 | 132 | 1.6 | 9.7 | 0.00 | 0.00 | 0.00 | 92 | |
| 20260507042556 | 5 | 150 | 3.2 | 9.7 | 0.00 | 0.00 | 0.00 | 92 | |
| 20260507042056 | 5 | 176 | 0.0 | 4.8 | 0.00 | 0.00 | 0.00 | 92 | |
| 20260507041555 | 5 | 0 | 0.0 | 0.0 | 0.00 | 0.00 | 0.00 | 92 | |
| 20260507041055 | 6 | 131 | 0.0 | 0.0 | 0.00 | 0.00 | 0.00 | 92 | |
| 20260507040054 | 6 | 163 | 0.0 | 4.8 | 0.00 | 0.00 | 0.00 | 92 | |
| 20260507035054 | 5 | 129 | 0.0 | 4.8 | 0.00 | 0.00 | 0.00 | 91 | |
| 20260507034554 | 5 | 156 | 0.0 | 6.4 | 0.00 | 0.00 | 0.00 | 91 | |
| 20260507034053 | 5 | 0 | 0.0 | 0.0 | 0.00 | 0.00 | 0.00 | 91 | |
| 20260507033553 | 5 | 0 | 0.0 | 0.0 | 0.00 | 0.00 | 0.00 | 91 | |
| 20260507033053 | 5 | 0 | 0.0 | 0.0 | 0.00 | 0.00 | 0.00 | 91 | |
| 20260507032553 | 5 | 170 | 0.0 | 6.4 | 0.00 | 0.00 | 0.00 | 91 | |
| 20260507032052 | 6 | 146 | 0.0 | 6.4 | 0.00 | 0.00 | 0.00 | 91 | |
| 20260507031050 | 6 | 141 | 3.2 | 9.7 | 0.00 | 0.00 | 0.00 | 90 | |
| 20260507030549 | 6 | 143 | 3.2 | 8.0 | 0.00 | 0.00 | 0.00 | 90 | |
| 20260507025049 | 6 | 142 | 1.6 | 6.4 | 0.00 | 0.00 | 0.00 | 90 | |
| 20260507024548 | 6 | 152 | 0.0 | 6.4 | 0.00 | 0.00 | 0.00 | 90 | |
| 20260507024048 | 6 | 145 | 0.0 | 6.4 | 0.00 | 0.00 | 0.00 | 90 | |
| 20260507023548 | 6 | 118 | 0.0 | 6.4 | 0.00 | 0.00 | 0.00 | 90 | |
| 20260507023047 | 6 | 152 | 3.2 | 8.0 | 0.00 | 0.00 | 0.00 | 90 | |
| 20260507022547 | 6 | 148 | 4.8 | 9.7 | 0.00 | 0.00 | 0.00 | 90 | |
| 20260507022047 | 6 | 160 | 4.8 | 9.7 | 0.00 | 0.00 | 0.00 | 90 | |
| 20260507021547 | 6 | 142 | 6.4 | 11.3 | 0.00 | 0.00 | 0.00 | 90 | |
| 20260507021046 | 6 | 165 | 4.8 | 9.7 | 0.00 | 0.00 | 0.00 | 89 | |
| 20260507020546 | 6 | 139 | 1.6 | 8.0 | 0.00 | 0.00 | 0.00 | 88 | |
| 20260507020046 | 6 | 141 | 3.2 | 8.0 | 0.00 | 0.00 | 0.00 | 88 | |
| 20260507015546 | 6 | 148 | 1.6 | 9.7 | 0.00 | 0.00 | 0.00 | 88 | |
| 20260507015045 | 6 | 152 | 1.6 | 6.4 | 0.00 | 0.00 | 0.00 | 87 | |
| 20260507014545 | 6 | 141 | 0.0 | 6.4 | 0.00 | 0.00 | 0.00 | 87 | |
| 20260507014045 | 6 | 96 | 1.6 | 4.8 | 0.00 | 0.00 | 0.00 | 87 | |
| 20260507013544 | 6 | 0 | 0.0 | 0.0 | 0.00 | 0.00 | 0.00 | 86 | |
| 20260507013044 | 6 | 129 | 0.0 | 6.4 | 0.00 | 0.00 | 0.00 | 86 | |
| 20260507012544 | 6 | 146 | 1.6 | 6.4 | 0.00 | 0.00 | 0.00 | 86 | |
| 20260507012044 | 6 | 156 | 1.6 | 9.7 | 0.00 | 0.00 | 0.00 | 86 | |
| 20260507011543 | 7 | 0 | 0.0 | 0.0 | 0.00 | 0.00 | 0.00 | 86 | |
| 20260507011043 | 7 | 0 | 0.0 | 0.0 | 0.00 | 0.00 | 0.00 | 85 | |
| 20260507010543 | 7 | 0 | 0.0 | 0.0 | 0.00 | 0.00 | 0.00 | 85 | |
| 20260507010042 | 6 | 0 | 0.0 | 0.0 | 0.00 | 0.00 | 0.00 | 85 | |
| 20260507005042 | 6 | 0 | 0.0 | 0.0 | 0.00 | 0.00 | 0.00 | 84 | |
| 20260507004542 | 7 | 0 | 0.0 | 0.0 | 0.00 | 0.00 | 0.00 | 84 | |
| 20260507004041 | 7 | 0 | 0.0 | 0.0 | 0.00 | 0.00 | 0.00 | 84 | |
| 20260507003541 | 7 | 0 | 0.0 | 0.0 | 0.00 | 0.00 | 0.00 | 84 | |
| 20260507003041 | 7 | 0 | 0.0 | 0.0 | 0.00 | 0.00 | 0.00 | 84 | |
| 20260507002541 | 7 | 159 | 1.6 | 4.8 | 0.00 | 0.00 | 0.00 | 83 | |
| 20260507002040 | 7 | 124 | 0.0 | 4.8 | 0.00 | 0.00 | 0.00 | 83 | |
| 20260507001540 | 7 | 0 | 0.0 | 0.0 | 0.00 | 0.00 | 0.00 | 83 | |
| 20260507000539 | 7 | 166 | 1.6 | 6.4 | 0.00 | 0.00 | 0.00 | 83 | |
| 20260507000039 | 7 | 132 | 1.6 | 9.7 | 0.00 | 0.00 | 0.00 | 83 | |
| 20260506235539 | 7 | 146 | 1.6 | 8.0 | 0.00 | 0.00 | 0.00 | 82 | |
| 20260506235039 | 7 | 148 | 3.2 | 8.0 | 0.00 | 0.00 | 0.00 | 82 | |
| 20260506234538 | 7 | 138 | 0.0 | 3.2 | 0.00 | 0.00 | 0.00 | 82 | |
| 20260506234038 | 7 | 141 | 1.6 | 8.0 | 0.00 | 0.00 | 0.00 | 81 | |
| 20260506233538 | 7 | 138 | 1.6 | 6.4 | 0.00 | 0.00 | 0.00 | 81 | |
| 20260506233037 | 7 | 127 | 1.6 | 8.0 | 0.00 | 0.00 | 0.00 | 81 | |
| 20260506232537 | 7 | 132 | 1.6 | 9.7 | 0.00 | 0.00 | 0.00 | 80 | |
| 20260506232037 | 7 | 135 | 1.6 | 6.4 | 0.00 | 0.00 | 0.00 | 80 | |
| 20260506231537 | 7 | 138 | 1.6 | 6.4 | 0.00 | 0.00 | 0.00 | 79 | |
| 20260506231036 | 7 | 127 | 1.6 | 9.7 | 0.00 | 0.00 | 0.00 | 79 | |
| 20260506230536 | 7 | 156 | 1.6 | 8.0 | 0.00 | 0.00 | 0.00 | 79 | |
| 20260506230035 | 8 | 160 | 3.2 | 6.4 | 0.00 | 0.00 | 0.00 | 79 | |
| 20260506225534 | 7 | 153 | 3.2 | 9.7 | 0.00 | 0.00 | 0.00 | 79 | |
| 20260506225034 | 8 | 103 | 0.0 | 4.8 | 0.00 | 0.00 | 0.00 | 78 | |
| 20260506224534 | 7 | 121 | 1.6 | 9.7 | 0.00 | 0.00 | 0.00 | 78 | |
| 20260506224033 | 7 | 135 | 3.2 | 9.7 | 0.00 | 0.00 | 0.00 | 77 | |
| 20260506223533 | 8 | 129 | 3.2 | 11.3 | 0.00 | 0.00 | 0.00 | 77 | |
| 20260506223032 | 8 | 113 | 4.8 | 9.7 | 0.00 | 0.00 | 0.00 | 76 | |
| 20260506222532 | 8 | 142 | 1.6 | 6.4 | 0.00 | 0.00 | 0.00 | 75 | |
| 20260506222031 | 8 | 131 | 0.0 | 6.4 | 0.00 | 0.00 | 0.00 | 74 | |
| 20260506221529 | 8 | 131 | 3.2 | 9.7 | 0.00 | 0.00 | 0.00 | 73 | |
| 20260506221029 | 8 | 121 | 4.8 | 11.3 | 0.00 | 0.00 | 0.00 | 74 | |
| 20260506220529 | 8 | 139 | 3.2 | 9.7 | 0.00 | 0.00 | 0.00 | 72 | |
| 20260506220028 | 9 | 104 | 3.2 | 11.3 | 0.00 | 0.00 | 0.00 | 70 | |
| 20260506215528 | 8 | 141 | 1.6 | 9.7 | 0.00 | 0.00 | 0.00 | 70 | |
| 20260506215028 | 8 | 114 | 3.2 | 11.3 | 0.00 | 0.00 | 0.00 | 69 | |
| 20260506214527 | 9 | 107 | 1.6 | 6.4 | 0.00 | 0.00 | 0.00 | 68 | |
| 20260506214027 | 9 | 138 | 1.6 | 9.7 | 0.00 | 0.00 | 0.00 | 67 | |
| 20260506213527 | 9 | 136 | 1.6 | 8.0 | 0.00 | 0.00 | 0.00 | 67 | |
| 20260506213027 | 10 | 159 | 0.0 | 4.8 | 0.00 | 0.00 | 0.00 | 66 | |
| 20260506212526 | 10 | 156 | 1.6 | 6.4 | 0.00 | 0.00 | 0.00 | 65 | |
| 20260506211526 | 10 | 152 | 4.8 | 9.7 | 0.00 | 0.00 | 0.00 | 64 | |
| 20260506211025 | 10 | 134 | 1.6 | 8.0 | 0.00 | 0.00 | 0.00 | 63 | |
| 20260506210525 | 10 | 146 | 3.2 | 8.0 | 0.00 | 0.00 | 0.00 | 63 | |
| 20260506210025 | 10 | 125 | 3.2 | 9.7 | 0.00 | 0.00 | 0.00 | 62 | |
| 20260506205525 | 10 | 167 | 3.2 | 9.7 | 0.00 | 0.00 | 0.00 | 62 | |
| 20260506205024 | 10 | 158 | 4.8 | 9.7 | 0.00 | 0.00 | 0.00 | 61 | |
| 20260506204524 | 10 | 181 | 4.8 | 9.7 | 0.00 | 0.00 | 0.00 | 60 | |
| 20260506204024 | 10 | 148 | 4.8 | 11.3 | 0.00 | 0.00 | 0.00 | 60 | |
| 20260506203522 | 10 | 159 | 3.2 | 9.7 | 0.00 | 0.00 | 0.00 | 59 | |
| 20260506203022 | 11 | 146 | 3.2 | 8.0 | 0.00 | 0.00 | 0.00 | 58 | |
| 20260506202521 | 11 | 148 | 4.8 | 8.0 | 0.00 | 0.00 | 0.00 | 57 | |
| 20260506202021 | 11 | 122 | 4.8 | 11.3 | 0.00 | 0.00 | 0.00 | 56 | |
| 20260506201020 | 11 | 104 | 1.6 | 6.4 | 0.00 | 0.00 | 0.00 | 53 | |
| 20260506200520 | 11 | 120 | 3.2 | 9.7 | 0.00 | 0.00 | 0.00 | 53 | |
| 20260506200020 | 11 | 146 | 4.8 | 9.7 | 0.00 | 0.00 | 0.00 | 52 | |
| 20260506195519 | 11 | 134 | 3.2 | 9.7 | 0.00 | 0.00 | 0.00 | 50 | |
| 20260506195019 | 11 | 152 | 3.2 | 6.4 | 0.00 | 0.00 | 0.00 | 49 | |
| 20260506194519 | 12 | 49 | 1.6 | 9.7 | 0.00 | 0.00 | 0.00 | 48 | |
| 20260506194018 | 12 | 107 | 3.2 | 6.4 | 0.00 | 0.00 | 0.00 | 48 | |
| 20260506193518 | 12 | 100 | 1.6 | 4.8 | 0.00 | 0.00 | 0.00 | 47 | |
| 20260506193018 | 12 | 125 | 1.6 | 4.8 | 0.00 | 0.00 | 0.00 | 47 | |
| 20260506192518 | 12 | 127 | 0.0 | 4.8 | 0.00 | 0.00 | 0.00 | 46 | |
| 20260506192017 | 12 | 96 | 1.6 | 6.4 | 0.00 | 0.00 | 0.00 | 46 | |
| 20260506191517 | 12 | 68 | 3.2 | 9.7 | 0.00 | 0.00 | 0.00 | 46 | |
| 20260506191017 | 12 | 132 | 1.6 | 4.8 | 0.00 | 0.00 | 0.00 | 46 | |
| 20260506190516 | 12 | 97 | 3.2 | 8.0 | 0.00 | 0.00 | 0.00 | 45 | |
| 20260506190016 | 12 | 110 | 4.8 | 9.7 | 0.00 | 0.00 | 0.00 | 45 | |
| 20260506185516 | 12 | 75 | 3.2 | 11.3 | 0.00 | 0.00 | 0.00 | 45 | |
| 20260506185016 | 12 | 111 | 3.2 | 11.3 | 0.00 | 0.00 | 0.00 | 45 | |
| 20260506184515 | 12 | 105 | 3.2 | 11.3 | 0.00 | 0.00 | 0.00 | 44 | |
| 20260506184015 | 12 | 97 | 4.8 | 11.3 | 0.00 | 0.00 | 0.00 | 44 | |
| 20260506183515 | 13 | 105 | 4.8 | 12.9 | 0.00 | 0.00 | 0.00 | 44 | |
| 20260506183014 | 12 | 114 | 3.2 | 9.7 | 0.00 | 0.00 | 0.00 | 45 | |
| 20260506182514 | 12 | 79 | 3.2 | 11.3 | 0.00 | 0.00 | 0.00 | 45 | |
| 20260506182014 | 13 | 103 | 1.6 | 11.3 | 0.00 | 0.00 | 0.00 | 45 | |
| 20260506181013 | 13 | 155 | 3.2 | 11.3 | 0.00 | 0.00 | 0.00 | 44 | |
| 20260506180513 | 13 | 120 | 1.6 | 9.7 | 0.00 | 0.00 | 0.00 | 45 | |
| 20260506180013 | 13 | 150 | 1.6 | 9.7 | 0.00 | 0.00 | 0.00 | 44 | |
| 20260506175513 | 13 | 93 | 4.8 | 11.3 | 0.00 | 0.00 | 0.00 | 43 | |
| 20260506175012 | 13 | 51 | 4.8 | 11.3 | 0.00 | 0.00 | 0.00 | 44 | |
| 20260506174512 | 13 | 90 | 3.2 | 11.3 | 0.00 | 0.00 | 0.00 | 44 | |
| 20260506174012 | 13 | 76 | 6.4 | 12.9 | 0.00 | 0.00 | 0.00 | 43 | |
| 20260506173011 | 13 | 160 | 4.8 | 12.9 | 0.00 | 0.00 | 0.00 | 41 | |
| 20260506172511 | 13 | 91 | 4.8 | 12.9 | 0.00 | 0.00 | 0.00 | 40 | |
| 20260506172010 | 13 | 98 | 4.8 | 12.9 | 0.00 | 0.00 | 0.00 | 40 | |
| 20260506171510 | 13 | 79 | 4.8 | 11.3 | 0.00 | 0.00 | 0.00 | 40 | |
| 20260506171010 | 13 | 75 | 4.8 | 14.5 | 0.00 | 0.00 | 0.00 | 40 | |
| 20260506170510 | 13 | 97 | 6.4 | 14.5 | 0.00 | 0.00 | 0.00 | 39 | |
| 20260506170009 | 13 | 120 | 6.4 | 12.9 | 0.00 | 0.00 | 0.00 | 39 | |
| 20260506165509 | 14 | 70 | 8.0 | 16.1 | 0.00 | 0.00 | 0.00 | 39 | |
| 20260506165009 | 14 | 0 | 0.0 | 0.0 | 0.00 | 0.00 | 0.00 | 34 | |
| 20260506164509 | 14 | 18 | 1.6 | 8.0 | 0.00 | 0.00 | 0.00 | 34 | |
| 20260506164008 | 14 | 42 | 3.2 | 9.7 | 0.00 | 0.00 | 0.00 | 35 | |
| 20260506163508 | 15 | 83 | 1.6 | 4.8 | 0.00 | 0.00 | 0.00 | 35 | |
| 20260506163008 | 15 | 80 | 3.2 | 14.5 | 0.00 | 0.00 | 0.00 | 35 | |
| 20260506162507 | 15 | 60 | 3.2 | 11.3 | 0.00 | 0.00 | 0.00 | 34 | |
| 20260506162007 | 15 | 79 | 3.2 | 9.7 | 0.00 | 0.00 | 0.00 | 33 | |
| 20260506161507 | 15 | 111 | 6.4 | 14.5 | 0.00 | 0.00 | 0.00 | 34 | |
| 20260506161007 | 14 | 83 | 4.8 | 12.9 | 0.00 | 0.00 | 0.00 | 34 | |
| 20260506160506 | 14 | 84 | 6.4 | 14.5 | 0.00 | 0.00 | 0.00 | 35 | |
| 20260506160006 | 15 | 101 | 8.0 | 17.7 | 0.00 | 0.00 | 0.00 | 34 | |
| 20260506155506 | 15 | 45 | 4.8 | 17.7 | 0.00 | 0.00 | 0.00 | 33 | |
| 20260506155006 | 15 | 79 | 3.2 | 8.0 | 0.00 | 0.00 | 0.00 | 34 | |
| 20260506154505 | 14 | 91 | 3.2 | 9.7 | 0.00 | 0.00 | 0.00 | 35 | |
| 20260506154005 | 14 | 113 | 4.8 | 14.5 | 0.00 | 0.00 | 0.00 | 36 | |
| 20260506153505 | 14 | 117 | 4.8 | 11.3 | 0.00 | 0.00 | 0.00 | 36 | |
| 20260506152504 | 14 | 84 | 9.7 | 19.3 | 0.00 | 0.00 | 0.00 | 37 | |
| 20260506151503 | 14 | 72 | 6.4 | 12.9 | 0.00 | 0.00 | 0.00 | 36 | |
| 20260506151003 | 14 | 101 | 3.2 | 14.5 | 0.00 | 0.00 | 0.00 | 36 | |
| 20260506150503 | 15 | 94 | 4.8 | 12.9 | 0.00 | 0.00 | 0.00 | 36 | |
| 20260506150003 | 15 | 121 | 4.8 | 19.3 | 0.00 | 0.00 | 0.00 | 35 | |
| 20260506145002 | 15 | 87 | 6.4 | 14.5 | 0.00 | 0.00 | 0.00 | 34 | |
| 20260506144502 | 15 | 121 | 4.8 | 11.3 | 0.00 | 0.00 | 0.00 | 35 | |
| 20260506144002 | 15 | 31 | 4.8 | 16.1 | 0.00 | 0.00 | 0.00 | 34 | |
| 20260506143501 | 15 | 105 | 4.8 | 11.3 | 0.00 | 0.00 | 0.00 | 34 | |
| 20260506143001 | 15 | 105 | 6.4 | 19.3 | 0.00 | 0.00 | 0.00 | 34 | |
| 20260506142501 | 16 | 113 | 6.4 | 17.7 | 0.00 | 0.00 | 0.00 | 32 | |
| 20260506142000 | 15 | 10 | 6.4 | 20.9 | 0.00 | 0.00 | 0.00 | 32 | |
| 20260506141500 | 15 | 10 | 6.4 | 19.3 | 0.00 | 0.00 | 0.00 | 35 | |
| 20260506141000 | 15 | 37 | 3.2 | 14.5 | 0.00 | 0.00 | 0.00 | 36 | |
| 20260506140500 | 15 | 97 | 6.4 | 19.3 | 0.00 | 0.00 | 0.00 | 38 |